SHT8W EGLL-EGPH

Flight info

Callsign SHT8W
Flight time 0h 59m
Altitude 32000
Route ULTIB T420 TNT UN57 POL UN601 RIBEL DCT INPIP
Aircraft A20N/M-SDE2E3FGHIRWXY/LB1

Departure

Time 2026-05-05 11:43
Airport London Heathrow Airport (EGLL)

Arrival

Time 2026-05-05 12:43
Airport Edinburgh Airport (EGPH)
Time Latitude Longitude Altitude Speed Heading
2026-05-05 11:30 51.46824 -0.48680 77 ft 0 kts 179°
2026-05-05 11:35 51.46827 -0.48680 77 ft 1 kts 180°
2026-05-05 11:35 51.46841 -0.48681 77 ft 2 kts 179°
2026-05-05 11:35 51.46855 -0.48681 77 ft 2 kts 180°
2026-05-05 11:35 51.46867 -0.48681 77 ft 1 kts 167°
2026-05-05 11:36 51.46876 -0.48694 77 ft 2 kts 107°
2026-05-05 11:36 51.46877 -0.48703 77 ft 1 kts 80°
2026-05-05 11:36 51.46876 -0.48712 77 ft 0 kts 89°
2026-05-05 11:39 51.46876 -0.48708 77 ft 1 kts 90°
2026-05-05 11:39 51.46876 -0.48672 77 ft 4 kts 91°
2026-05-05 11:39 51.46876 -0.48602 77 ft 8 kts 90°
2026-05-05 11:40 51.46876 -0.48515 77 ft 6 kts 90°
2026-05-05 11:40 51.46850 -0.48468 78 ft 5 kts 173°
2026-05-05 11:40 51.46835 -0.48468 78 ft 0 kts 182°
2026-05-05 11:40 51.46829 -0.48468 77 ft 0 kts 182°
2026-05-05 11:41 51.46815 -0.48468 78 ft 4 kts 182°
2026-05-05 11:41 51.46758 -0.48470 77 ft 11 kts 180°
2026-05-05 11:41 51.46666 -0.48469 78 ft 14 kts 180°
2026-05-05 11:42 51.46563 -0.48468 77 ft 14 kts 180°
2026-05-05 11:42 51.46488 -0.48457 77 ft 10 kts 146°
2026-05-05 11:42 51.46477 -0.48413 78 ft 0 kts 91°
2026-05-05 11:42 51.46477 -0.48407 78 ft 4 kts 91°
2026-05-05 11:43 51.46479 -0.47980 78 ft 77 kts 89°
2026-05-05 11:43 51.46483 -0.46766 78 ft 140 kts 90°
2026-05-05 11:43 51.46479 -0.45105 465 ft 153 kts 88°
2026-05-05 11:43 51.46490 -0.43517 1143 ft 149 kts 86°
2026-05-05 11:44 51.46547 -0.41909 1765 ft 148 kts 71°
2026-05-05 11:44 51.47076 -0.40545 2200 ft 156 kts 45°
2026-05-05 11:44 51.47838 -0.39233 2640 ft 168 kts 46°
2026-05-05 11:44 51.48667 -0.37798 2972 ft 191 kts 46°
2026-05-05 11:45 51.49506 -0.36316 3410 ft 207 kts 47°
2026-05-05 11:45 51.50493 -0.34535 3908 ft 225 kts 48°
2026-05-05 11:45 51.51523 -0.32637 4431 ft 241 kts 51°
2026-05-05 11:45 51.52319 -0.30395 4924 ft 258 kts 68°
2026-05-05 11:46 51.52810 -0.28093 5482 ft 263 kts 71°
2026-05-05 11:46 51.53338 -0.25403 5856 ft 265 kts 71°
2026-05-05 11:46 51.53902 -0.22650 5971 ft 266 kts 71°
2026-05-05 11:46 51.54561 -0.20045 5965 ft 264 kts 57°
2026-05-05 11:47 51.55742 -0.18165 5972 ft 263 kts 31°
2026-05-05 11:47 51.57371 -0.17305 5977 ft 264 kts
2026-05-05 11:47 51.59153 -0.17765 5979 ft 267 kts 337°
2026-05-05 11:47 51.60575 -0.19448 5981 ft 270 kts 310°
2026-05-05 11:48 51.62735 -0.23993 5986 ft 271 kts 318°
2026-05-05 11:48 51.64182 -0.25901 5987 ft 270 kts 326°
2026-05-05 11:48 51.65755 -0.27587 5986 ft 269 kts 329°
2026-05-05 11:49 51.67269 -0.29081 5986 ft 269 kts 331°
2026-05-05 11:49 51.68816 -0.30572 5987 ft 269 kts 331°
2026-05-05 11:49 51.70412 -0.32105 5988 ft 269 kts 331°
2026-05-05 11:49 51.72018 -0.33649 5987 ft 268 kts 331°
2026-05-05 11:50 51.73599 -0.35173 5987 ft 268 kts 331°
2026-05-05 11:50 51.74961 -0.36488 6024 ft 272 kts 331°
2026-05-05 11:50 51.76604 -0.38073 6600 ft 280 kts 330°
2026-05-05 11:50 51.78236 -0.39650 7661 ft 277 kts 330°
2026-05-05 11:51 51.79853 -0.41215 8599 ft 279 kts 330°
2026-05-05 11:51 51.81497 -0.42806 9466 ft 282 kts 330°
2026-05-05 11:51 51.83173 -0.44431 10319 ft 286 kts 330°
2026-05-05 11:51 51.84758 -0.45971 10967 ft 294 kts 330°
2026-05-05 11:52 51.86562 -0.47725 11427 ft 311 kts 330°
2026-05-05 11:52 51.88449 -0.49561 11892 ft 326 kts 330°
2026-05-05 11:52 51.90381 -0.51444 12618 ft 332 kts 330°
2026-05-05 11:52 51.92356 -0.53369 13416 ft 335 kts 330°
2026-05-05 11:53 51.94358 -0.55323 14191 ft 339 kts 330°
2026-05-05 11:53 51.96360 -0.57271 14917 ft 343 kts 330°
2026-05-05 11:53 51.98409 -0.59267 15628 ft 347 kts 329°
2026-05-05 11:53 52.00506 -0.61315 16327 ft 352 kts 329°
2026-05-05 11:54 52.02589 -0.63355 16994 ft 356 kts 329°
2026-05-05 11:54 52.04716 -0.65443 17648 ft 361 kts 328°
2026-05-05 11:54 52.06826 -0.67529 18270 ft 366 kts 327°
2026-05-05 11:54 52.08841 -0.69525 18857 ft 370 kts 327°
2026-05-05 11:55 52.11083 -0.71739 19501 ft 374 kts 327°
2026-05-05 11:55 52.13302 -0.73913 20122 ft 378 kts 327°
2026-05-05 11:55 52.15540 -0.76108 20735 ft 382 kts 327°
2026-05-05 11:55 52.17818 -0.78352 21341 ft 385 kts 327°
2026-05-05 11:56 52.19787 -0.80297 21849 ft 388 kts 327°
2026-05-05 11:56 52.22073 -0.82560 22416 ft 392 kts 327°
2026-05-05 11:56 52.24409 -0.84876 22975 ft 396 kts 327°
2026-05-05 11:56 52.26686 -0.87132 23511 ft 399 kts 326°
2026-05-05 11:57 52.29073 -0.89498 24050 ft 403 kts 326°
2026-05-05 11:57 52.31417 -0.91828 24562 ft 406 kts 326°
2026-05-05 11:57 52.33818 -0.94220 25078 ft 410 kts 326°
2026-05-05 11:57 52.36229 -0.96626 25572 ft 413 kts 326°
2026-05-05 11:58 52.38632 -0.99027 26035 ft 416 kts 326°
2026-05-05 11:58 52.41087 -1.01485 26503 ft 419 kts 327°
2026-05-05 11:58 52.43572 -1.03977 26947 ft 422 kts 327°
2026-05-05 11:58 52.45999 -1.06413 27357 ft 425 kts 327°
2026-05-05 11:59 52.48522 -1.08947 27784 ft 428 kts 327°
2026-05-05 11:59 52.50939 -1.11376 28313 ft 427 kts 327°
2026-05-05 11:59 52.53434 -1.13887 28880 ft 426 kts 328°
2026-05-05 11:59 52.55926 -1.16400 29440 ft 425 kts 328°
2026-05-05 12:00 52.58430 -1.18923 29961 ft 424 kts 328°
2026-05-05 12:00 52.60950 -1.21466 30429 ft 425 kts 328°
2026-05-05 12:00 52.63453 -1.23998 30846 ft 426 kts 329°
2026-05-05 12:00 52.65987 -1.26561 31225 ft 428 kts 328°
2026-05-05 12:01 52.68494 -1.29105 31515 ft 431 kts 329°
2026-05-05 12:01 52.71050 -1.31701 31881 ft 431 kts 329°
2026-05-05 12:01 52.76152 -1.36880 31957 ft 432 kts 329°
2026-05-05 12:02 52.81225 -1.42057 31968 ft 430 kts 329°
2026-05-05 12:02 52.86238 -1.47197 31975 ft 428 kts 329°
2026-05-05 12:03 52.91267 -1.52365 31969 ft 427 kts 329°
2026-05-05 12:03 52.96257 -1.57506 31975 ft 426 kts 329°
2026-05-05 12:04 53.01246 -1.62659 31984 ft 426 kts 329°
2026-05-05 12:04 53.06254 -1.67208 31986 ft 426 kts 335°
2026-05-05 12:05 53.11582 -1.70874 31987 ft 425 kts 340°
2026-05-05 12:05 53.17028 -1.74213 31986 ft 425 kts 340°
2026-05-05 12:06 53.22514 -1.77591 31989 ft 426 kts 340°
2026-05-05 12:06 53.27877 -1.80923 31989 ft 426 kts 340°
2026-05-05 12:07 53.33453 -1.84405 31991 ft 427 kts 340°
2026-05-05 12:07 53.39008 -1.87885 31990 ft 428 kts 340°
2026-05-05 12:08 53.44532 -1.91358 31987 ft 427 kts 340°
2026-05-05 12:08 53.50056 -1.94829 31988 ft 422 kts 340°
2026-05-05 12:09 53.55529 -1.98291 31993 ft 421 kts 338°
2026-05-05 12:09 53.60983 -2.01739 31985 ft 421 kts 338°
2026-05-05 12:10 53.66460 -2.05240 31988 ft 419 kts 338°
2026-05-05 12:10 53.71864 -2.08694 31987 ft 420 kts 338°
2026-05-05 12:11 53.77341 -2.12270 31986 ft 420 kts 336°
2026-05-05 12:11 53.82732 -2.15975 31986 ft 420 kts 336°
2026-05-05 12:12 53.87748 -2.19416 31987 ft 420 kts 336°
2026-05-05 12:12 53.93134 -2.23103 31991 ft 419 kts 336°
2026-05-05 12:13 53.98365 -2.26698 31991 ft 418 kts 336°
2026-05-05 12:13 54.03748 -2.30404 31990 ft 418 kts 336°
2026-05-05 12:14 54.09128 -2.34112 31987 ft 419 kts 336°
2026-05-05 12:14 54.14485 -2.37803 31981 ft 419 kts 336°
2026-05-05 12:15 54.19886 -2.41535 31982 ft 419 kts 335°
2026-05-05 12:15 54.24901 -2.45025 31981 ft 419 kts 335°
2026-05-05 12:16 54.30303 -2.48796 31982 ft 420 kts 335°
2026-05-05 12:16 54.35692 -2.52571 31988 ft 420 kts 335°
2026-05-05 12:17 54.40895 -2.56227 31779 ft 419 kts 335°
2026-05-05 12:17 54.43570 -2.58111 31487 ft 417 kts 335°
2026-05-05 12:17 54.46246 -2.59994 31098 ft 414 kts 335°
2026-05-05 12:18 54.48898 -2.61866 30588 ft 412 kts 335°
2026-05-05 12:18 54.51372 -2.63617 30051 ft 411 kts 335°
2026-05-05 12:18 54.53998 -2.65479 29462 ft 410 kts 334°
2026-05-05 12:18 54.56623 -2.67354 28846 ft 410 kts 334°
2026-05-05 12:19 54.59275 -2.69250 28224 ft 410 kts 334°
2026-05-05 12:19 54.61898 -2.71127 27613 ft 410 kts 334°
2026-05-05 12:19 54.64345 -2.72873 27145 ft 409 kts 334°
2026-05-05 12:19 54.66974 -2.74750 26745 ft 407 kts 334°
2026-05-05 12:20 54.69552 -2.76588 26502 ft 397 kts 334°
2026-05-05 12:20 54.71893 -2.78258 26446 ft 383 kts 334°
2026-05-05 12:20 54.74306 -2.79982 26390 ft 368 kts 334°
2026-05-05 12:20 54.76625 -2.81645 26322 ft 355 kts 334°
2026-05-05 12:21 54.78872 -2.83256 26255 ft 341 kts 333°
2026-05-05 12:21 54.81019 -2.84801 26193 ft 329 kts 333°
2026-05-05 12:21 54.83092 -2.86295 26139 ft 322 kts 333°
2026-05-05 12:21 54.85155 -2.87786 26085 ft 319 kts 333°
2026-05-05 12:22 54.87183 -2.89253 26029 ft 317 kts 333°
2026-05-05 12:22 54.89219 -2.90722 25863 ft 316 kts 333°
2026-05-05 12:22 54.91256 -2.92196 25225 ft 323 kts 333°
2026-05-05 12:22 54.93315 -2.93689 24656 ft 327 kts 333°
2026-05-05 12:23 54.95394 -2.95194 24238 ft 325 kts 334°
2026-05-05 12:23 54.97468 -2.96694 23695 ft 321 kts 334°
2026-05-05 12:23 54.99546 -2.98202 22935 ft 326 kts 334°
2026-05-05 12:23 55.01624 -2.99710 22591 ft 321 kts 334°
2026-05-05 12:24 55.03671 -3.01196 22268 ft 317 kts 334°
2026-05-05 12:24 55.05684 -3.02661 21960 ft 312 kts 334°
2026-05-05 12:24 55.07681 -3.04115 21622 ft 309 kts 334°
2026-05-05 12:24 55.09660 -3.05560 21270 ft 306 kts 334°
2026-05-05 12:25 55.11617 -3.06986 20898 ft 304 kts 334°
2026-05-05 12:25 55.13574 -3.08406 20539 ft 302 kts 334°
2026-05-05 12:25 55.15496 -3.09805 20184 ft 300 kts 334°
2026-05-05 12:25 55.17414 -3.11206 19826 ft 297 kts 334°
2026-05-05 12:26 55.19307 -3.12592 19464 ft 295 kts 334°
2026-05-05 12:26 55.21173 -3.13964 19104 ft 293 kts 334°
2026-05-05 12:26 55.23050 -3.15344 18745 ft 291 kts 334°
2026-05-05 12:26 55.24896 -3.16701 18400 ft 289 kts 334°
2026-05-05 12:27 55.26748 -3.18066 18030 ft 287 kts 334°
2026-05-05 12:27 55.28584 -3.19396 17650 ft 287 kts 338°
2026-05-05 12:27 55.30559 -3.20152 17276 ft 289 kts 353°
2026-05-05 12:27 55.32548 -3.20084 16951 ft 289 kts
2026-05-05 12:28 55.34552 -3.19769 16591 ft 288 kts
2026-05-05 12:28 55.36557 -3.19427 16236 ft 287 kts
2026-05-05 12:28 55.38521 -3.19097 15861 ft 284 kts
2026-05-05 12:28 55.40451 -3.18780 15313 ft 281 kts
2026-05-05 12:29 55.42254 -3.18492 14667 ft 281 kts
2026-05-05 12:29 55.44214 -3.18182 14027 ft 278 kts
2026-05-05 12:29 55.46135 -3.17879 13431 ft 274 kts
2026-05-05 12:29 55.47997 -3.17586 12835 ft 270 kts
2026-05-05 12:30 55.49873 -3.17292 12239 ft 267 kts
2026-05-05 12:30 55.51698 -3.17007 11643 ft 263 kts
2026-05-05 12:30 55.53194 -3.17044 11153 ft 257 kts 345°
2026-05-05 12:30 55.54752 -3.18435 10866 ft 245 kts 317°
2026-05-05 12:31 55.55930 -3.20538 10553 ft 241 kts 311°
2026-05-05 12:31 55.57042 -3.22808 10052 ft 246 kts 310°
2026-05-05 12:31 55.58145 -3.25133 9648 ft 247 kts 310°
2026-05-05 12:31 55.59244 -3.27466 9295 ft 246 kts 310°
2026-05-05 12:32 55.60328 -3.29780 8919 ft 245 kts 310°
2026-05-05 12:32 55.61416 -3.32108 8525 ft 245 kts 312°
2026-05-05 12:32 55.62649 -3.34122 8146 ft 244 kts 322°
2026-05-05 12:32 55.64013 -3.35914 7790 ft 243 kts 324°
2026-05-05 12:33 55.65374 -3.37641 7435 ft 243 kts 325°
2026-05-05 12:33 55.66739 -3.39374 7110 ft 241 kts 325°
2026-05-05 12:33 55.68098 -3.41108 6976 ft 240 kts 325°
2026-05-05 12:33 55.69434 -3.42816 6699 ft 239 kts 325°
2026-05-05 12:34 55.70802 -3.44572 6311 ft 240 kts 325°
2026-05-05 12:34 55.72151 -3.46315 5964 ft 240 kts 325°
2026-05-05 12:34 55.73485 -3.48052 5633 ft 239 kts 325°
2026-05-05 12:34 55.74803 -3.49788 5297 ft 238 kts 325°
2026-05-05 12:35 55.76126 -3.51548 4962 ft 238 kts 325°
2026-05-05 12:35 55.77436 -3.53306 4627 ft 237 kts 325°
2026-05-05 12:35 55.78740 -3.55073 4294 ft 237 kts 325°
2026-05-05 12:35 55.80040 -3.56852 4017 ft 234 kts 325°
2026-05-05 12:36 55.81315 -3.58618 3972 ft 227 kts 325°
2026-05-05 12:36 55.82530 -3.60317 3952 ft 213 kts 325°
2026-05-05 12:36 55.83645 -3.61884 3984 ft 196 kts 325°
2026-05-05 12:36 55.84681 -3.63349 4005 ft 188 kts 325°
2026-05-05 12:37 55.85686 -3.64776 3852 ft 182 kts 325°
2026-05-05 12:37 55.86710 -3.66126 3485 ft 182 kts 336°
2026-05-05 12:37 55.87909 -3.66395 3117 ft 175 kts 17°
2026-05-05 12:37 55.88824 -3.65166 2980 ft 169 kts 60°
2026-05-05 12:38 55.89069 -3.63150 2898 ft 168 kts 85°
2026-05-05 12:38 55.89056 -3.61096 2696 ft 161 kts 89°
2026-05-05 12:38 55.89002 -3.59152 2517 ft 153 kts 89°
2026-05-05 12:38 55.88942 -3.57440 2342 ft 141 kts 89°
2026-05-05 12:39 55.88985 -3.55801 2082 ft 126 kts 71°
2026-05-05 12:39 55.89286 -3.54425 1816 ft 119 kts 63°
2026-05-05 12:39 55.89664 -3.53115 1752 ft 118 kts 60°
2026-05-05 12:39 55.90070 -3.51834 1754 ft 119 kts 59°
2026-05-05 12:40 55.90488 -3.50571 1698 ft 119 kts 58°
2026-05-05 12:40 55.90911 -3.49320 1530 ft 119 kts 57°
2026-05-05 12:40 55.91335 -3.48061 1333 ft 118 kts 58°
2026-05-05 12:40 55.91758 -3.46810 1170 ft 118 kts 58°
2026-05-05 12:41 55.92193 -3.45558 1009 ft 118 kts 58°
2026-05-05 12:41 55.92599 -3.44295 851 ft 117 kts 59°
2026-05-05 12:41 55.93039 -3.43072 692 ft 117 kts 57°
2026-05-05 12:41 55.93450 -3.41843 548 ft 117 kts 60°
2026-05-05 12:42 55.93871 -3.40589 375 ft 117 kts 60°
2026-05-05 12:42 55.94286 -3.39363 227 ft 117 kts 61°
2026-05-05 12:42 55.94706 -3.38116 105 ft 110 kts 59°
2026-05-05 12:42 55.95022 -3.37181 99 ft 65 kts 58°
2026-05-05 12:43 55.95174 -3.36730 99 ft 24 kts 58°
2026-05-05 12:43 55.95229 -3.36569 102 ft 13 kts 58°
2026-05-05 12:43 55.95259 -3.36456 102 ft 9 kts 89°
2026-05-05 12:43 55.95215 -3.36375 102 ft 9 kts 147°
2026-05-05 12:44 55.95184 -3.36341 102 ft 4 kts 147°
2026-05-05 12:44 55.95169 -3.36324 102 ft 0 kts 147°
2026-05-05 12:44 55.95163 -3.36318 102 ft 2 kts 146°
2026-05-05 12:45 55.95142 -3.36307 102 ft 4 kts 183°
2026-05-05 12:45 55.95108 -3.36354 102 ft 8 kts 240°
2026-05-05 12:45 55.95053 -3.36392 102 ft 10 kts 162°
2026-05-05 12:45 55.94996 -3.36455 102 ft 10 kts 238°
2026-05-05 12:46 55.94940 -3.36452 102 ft 4 kts 145°
2026-05-05 12:46 55.94922 -3.36431 102 ft 0 kts 148°
2026-05-05 12:46 55.94920 -3.36429 102 ft 0 kts 148°